Wind_Speed
5 5 5 5 5 5 4 4 4 4 4 3 3 2 2 2 2 2 2 2 2 2 3 3 3 3 3 3 3 2 2 2 3 4 4 4 4 5 6 6 7 7 7
5 5 5 5 4 4 3 3 3 2 2 2 2 1 1 1 1 1 1 2 2 2 2 2 2 2 3 3 3 2 3 3 3 4 4 5 6 6 7 7 8 8 9
5 4 3 3 4 3 3 2 2 2 2 2 1 1 1 2 2 2 2 3 2 3 3 3 3 3 3 4 4 4 4 4 4 4 5 5 6 7 8 8 8 9 10
4 3 3 3 3 2 2 2 2 2 2 2 2 2 2 3 3 3 4 4 4 5 5 5 5 5 5 6 6 6 6 6 6 7 7 7 8 8 8 9 9 10 11
3 3 2 2 2 1 1 2 2 3 3 3 3 3 3 4 4 5 5 5 6 6 7 7 7 7 7 7 7 8 8 9 9 9 9 9 9 9 9 9 10 11 12
3 2 2 1 1 2 2 2 2 3 4 4 4 5 5 5 6 6 7 7 8 8 9 8 8 9 9 9 9 9 10 10 10 10 10 10 11 11 11 12 12 12 13
2 2 1 1 1 2 2 2 2 3 4 5 5 6 7 7 8 9 9 9 8 9 9 9 9 10 10 10 10 11 11 11 11 12 12 12 12 12 13 13 13 14 15
2 1 1 1 1 1 2 3 3 4 5 5 6 7 8 8 9 9 9 9 9 10 9 9 10 10 10 11 12 12 12 12 12 12 12 13 13 14 15 15 16 16 17
3 2 2 2 2 2 3 4 5 5 5 6 7 8 8 9 8 8 9 10 11 11 10 10 11 12 12 13 13 13 13 12 13 13 13 15 15 15 16 16 17 18 18
4 3 4 3 3 4 4 5 5 6 6 7 7 8 8 9 9 9 9 10 11 11 12 12 13 14 14 14 14 15 14 14 14 14 15 15 16 16 17 18 18 18 19
5 4 4 5 5 5 5 6 6 7 7 8 8 9 9 10 9 9 9 10 11 11 12 13 13 14 14 14 15 16 15 15 16 16 17 17 17 18 19 19 19 19 20
6 6 5 5 5 6 6 7 7 8 8 9 9 9 9 10 10 9 10 11 12 12 13 13 14 15 15 16 16 15 16 17 17 18 18 18 19 19 19 20 20 21 21
7 7 6 6 6 7 8 8 9 9 8 8 8 9 9 10 10 10 11 11 12 12 13 14 15 15 16 16 16 17 17 18 18 19 20 20 20 20 20 21 22 22 22
7 8 7 6 6 7 8 9 10 9 9 9 8 8 9 9 10 10 11 11 12 12 12 13 14 14 15 15 16 17 18 18 19 20 20 21 21 21 21 22 23 24 24
8 8 8 7 7 7 8 8 9 10 10 10 9 10 10 10 11 12 12 12 13 12 13 14 14 15 15 16 16 18 19 19 20 21 21 21 21 22 23 24 24 24 25
9 9 9 8 7 7 8 9 9 10 10 11 11 11 11 12 12 12 13 13 13 14 14 15 15 16 17 17 17 18 18 19 20 20 20 21 22 23 24 24 25 25 25
10 10 9 8 8 9 9 10 10 11 11 12 12 12 12 13 13 13 13 14 14 15 16 16 17 17 18 18 19 19 19 20 21 22 22 22 24 24 24 25 25 25 25
11 11 10 9 9 10 11 11 11 12 13 13 14 13 13 13 13 14 15 15 16 16 16 17 18 19 19 19 20 20 20 21 21 22 23 23 24 25 25 25 26 26 27
11 10 9 9 9 10 11 12 12 13 13 13 13 14 14 15 16 17 17 17 17 17 18 19 19 20 20 21 21 21 21 22 23 24 24 24 25 26 26 26 27 27 28
11 9 9 9 10 10 11 11 11 12 12 13 13 14 15 16 17 18 18 18 18 19 19 20 20 21 21 22 22 22 23 24 24 24 25 25 26 27 27 27 28 28 29
11 10 10 10 10 10 11 12 12 12 12 13 14 15 15 16 17 18 18 18 18 19 20 21 21 22 23 23 24 25 25 25 25 25 26 27 27 28 28 29 29 29 30
11 11 11 10 11 11 12 12 12 12 13 14 15 15 16 17 17 17 18 18 18 19 20 21 22 23 24 24 25 25 26 26 26 26 27 28 29 29 29 30 30 30 30
12 12 12 12 13 13 13 13 13 13 13 14 15 15 16 17 17 18 18 18 19 20 22 23 24 24 24 25 25 25 26 26 27 27 28 29 29 29 29 30 30 30 30
14 14 14 14 15 15 15 14 14 14 14 15 16 17 18 18 17 18 18 18 20 21 22 23 24 24 24 25 25 26 27 27 27 28 28 29 29 29 29 30 30 30 30
15 15 15 15 16 15 15 16 16 16 16 16 17 18 18 18 18 19 20 20 21 22 23 24 24 24 25 26 26 27 27 28 28 29 29 30 30 30 30 30 30 30 31
16 16 16 17 17 17 17 17 17 17 17 17 18 18 18 19 19 20 20 21 22 22 23 24 24 25 26 26 27 27 28 28 29 29 29 30 30 30 30 30 30 30 30
Wind_Direction
105 109 112 118 123 126 124 123 115 113 107 106 105 97 86 75 57 59 53 47 49 52 50 43 34 27 23 21 17 7 355 328 308 300 293 283 277 279 280 275 275 271 269
101 108 114 120 125 128 127 133 132 119 126 134 125 111 70 1 23 17 9 359 1 8 10 359 352 349 351 348 345 334 327 333 324 310 294 284 282 284 286 279 276 274 272
93 99 116 131 134 136 147 167 179 181 184 183 195 234 290 307 305 311 326 323 326 324 319 317 312 310 311 316 315 306 301 304 308 308 297 290 290 293 287 281 279 278 277
99 99 121 146 153 159 183 197 201 209 225 236 244 259 283 297 302 303 311 315 311 306 301 301 296 297 297 297 294 291 294 295 291 291 290 290 291 290 290 285 282 279 276
99 98 115 150 169 188 211 235 230 229 241 253 262 275 281 289 297 296 294 296 299 299 296 293 291 288 290 291 291 287 288 289 288 288 288 288 289 288 287 288 288 285 280
94 98 92 139 227 233 227 243 246 249 254 258 261 266 272 275 281 287 287 288 291 292 292 292 293 291 291 290 287 286 287 286 288 287 287 287 287 287 288 287 288 287 284
77 80 48 10 273 255 244 246 247 247 258 268 266 266 270 275 278 280 283 284 288 291 293 294 297 295 290 291 290 289 288 286 287 288 287 286 285 285 285 287 287 287 287
47 46 3 357 329 290 266 267 269 261 265 271 271 268 271 276 280 282 284 282 282 286 291 295 297 295 293 290 290 288 291 289 287 287 285 286 285 284 284 282 283 286 286
16 13 355 327 310 300 289 283 278 278 276 278 275 271 274 277 280 283 281 281 282 285 289 293 294 293 294 292 292 289 288 288 288 288 288 286 287 286 286 284 284 285 285
352 342 336 324 307 301 302 296 284 280 282 283 277 273 276 279 281 284 285 285 285 285 287 289 290 289 291 292 290 289 290 291 290 287 286 286 287 287 287 285 286 286 285
339 328 322 323 317 307 306 302 298 291 289 287 281 277 274 276 277 281 286 286 287 287 286 288 292 294 293 292 290 289 287 288 288 288 288 286 286 288 286 284 284 284 284
346 329 310 311 315 311 308 305 298 293 290 289 283 280 277 276 277 280 285 289 292 291 292 293 294 294 293 293 292 290 288 286 286 286 287 288 288 289 288 285 284 284 284
344 333 315 303 304 305 303 304 302 292 289 290 291 290 286 284 278 278 284 289 294 295 296 297 295 293 291 289 290 290 290 288 285 286 286 287 286 287 288 286 285 285 285
332 330 322 304 299 301 299 298 296 294 293 296 298 296 293 289 286 285 288 290 293 294 298 299 300 299 296 292 290 289 288 289 287 287 287 286 286 286 286 285 284 284 284
322 321 317 307 300 299 296 293 293 293 292 291 292 292 294 293 291 288 290 291 294 294 294 299 298 297 297 294 291 289 288 289 288 288 288 287 287 288 286 284 283 283 283
321 316 308 303 297 297 296 296 294 294 292 290 289 289 289 291 291 290 291 292 294 295 295 296 296 296 296 296 295 291 290 289 289 289 290 290 290 290 290 287 286 285 285
321 318 315 304 296 297 301 300 297 294 293 293 291 289 289 291 292 292 291 292 293 294 295 295 297 296 296 296 295 293 293 293 292 291 292 292 291 291 292 290 289 288 287
318 317 311 304 300 301 302 300 299 296 294 294 290 287 288 290 292 292 291 292 294 295 295 295 296 295 295 296 296 295 293 293 292 291 293 294 293 293 293 292 292 291 291
319 316 313 310 306 306 305 302 301 300 295 294 291 289 291 289 289 289 288 289 291 291 294 295 297 298 296 298 298 296 294 292 291 291 293 293 293 293 293 293 293 293 292
325 317 312 312 312 312 310 308 306 305 302 299 294 295 296 293 291 289 288 289 289 291 293 295 297 298 298 298 298 295 292 291 291 291 293 294 294 295 295 295 294 292 292
326 321 314 312 309 308 309 308 306 304 302 300 299 297 297 299 299 296 294 292 293 296 296 297 298 298 298 298 299 297 295 293 292 292 294 295 296 296 295 295 294 294 294
326 326 321 315 312 312 312 308 305 303 302 302 303 302 302 302 301 300 298 296 296 298 298 298 299 298 298 300 300 299 297 296 296 296 296 297 297 297 296 296 295 294 294
322 320 318 315 313 311 310 307 304 303 303 304 305 307 308 307 304 301 300 298 298 299 298 299 299 299 299 300 300 300 298 298 298 299 298 298 299 299 299 298 297 297 296
320 319 317 314 312 310 307 306 303 302 303 304 305 306 307 306 305 302 301 301 299 300 302 301 301 301 301 300 299 299 301 301 301 301 300 300 299 299 298 298 299 298 298
314 315 315 314 312 312 309 306 304 304 303 303 305 306 307 307 305 304 304 303 303 303 305 305 304 304 303 302 301 302 303 303 302 301 300 299 299 299 299 299 300 300 300
311 311 311 311 311 311 310 308 305 303 304 305 305 306 305 305 305 304 305 306 306 306 307 309 308 306 305 303 303 303 304 303 302 301 301 300 301 301 301 301 301 301 301
Height
5908 5908 5908 5908 5908 5908 5908 5908 5908 5908 5908 5908 5908 5908 5908 5908 5907 5906 5906 5905 5904 5904 5903 5903 5902 5902 5901 5900 5899 5899 5898 5897 5897 5896 5895 5895 5894 5894 5893 5893 5892 5892 5892
5908 5909 5909 5909 5909 5909 5908 5909 5909 5909 5909 5909 5909 5909 5908 5908 5907 5907 5906 5905 5905 5904 5903 5903 5902 5901 5901 5900 5899 5898 5898 5897 5896 5895 5894 5894 5893 5892 5892 5891 5891 5890 5890
5909 5909 5909 5909 5909 5909 5909 5909 5909 5909 5909 5909 5909 5909 5908 5908 5907 5907 5906 5905 5905 5904 5903 5902 5902 5901 5900 5899 5898 5898 5897 5896 5895 5895 5894 5893 5892 5891 5890 5890 5889 5888 5888
5909 5909 5909 5909 5909 5909 5909 5909 5909 5909 5909 5909 5909 5908 5908 5907 5907 5906 5906 5905 5904 5903 5902 5902 5901 5900 5899 5898 5897 5897 5896 5895 5894 5893 5892 5891 5891 5890 5889 5888 5887 5886 5885
5910 5909 5909 5909 5909 5908 5908 5908 5908 5908 5908 5908 5908 5908 5907 5907 5906 5905 5905 5904 5903 5902 5901 5900 5899 5898 5897 5896 5896 5895 5895 5894 5893 5892 5891 5890 5889 5888 5887 5886 5885 5884 5883
5910 5909 5909 5909 5908 5908 5908 5907 5907 5907 5907 5907 5907 5907 5906 5906 5905 5904 5903 5902 5901 5900 5899 5898 5897 5896 5895 5894 5893 5893 5892 5891 5890 5889 5888 5887 5886 5885 5884 5883 5882 5881 5880
5910 5909 5909 5908 5908 5907 5907 5906 5906 5906 5906 5906 5905 5905 5905 5904 5904 5903 5902 5901 5900 5899 5897 5896 5895 5894 5893 5892 5891 5890 5889 5888 5887 5886 5885 5884 5883 5882 5881 5880 5879 5878 5877
5909 5909 5908 5908 5907 5907 5906 5906 5905 5905 5905 5904 5904 5903 5903 5903 5902 5901 5900 5899 5898 5897 5895 5894 5893 5892 5891 5889 5888 5887 5886 5885 5884 5883 5882 5881 5880 5879 5878 5877 5876 5875 5873
5909 5909 5908 5907 5907 5906 5906 5905 5904 5904 5903 5903 5902 5902 5901 5900 5900 5899 5898 5897 5895 5894 5893 5892 5891 5889 5888 5887 5885 5884 5883 5882 5881 5880 5879 5878 5876 5875 5874 5873 5872 5870 5869
5909 5908 5907 5906 5906 5905 5904 5903 5903 5902 5901 5901 5900 5900 5899 5898 5897 5897 5896 5894 5893 5892 5891 5889 5888 5887 5885 5884 5882 5881 5880 5879 5878 5877 5875 5874 5872 5871 5869 5868 5867 5865 5864
5908 5907 5905 5904 5904 5903 5902 5901 5901 5900 5899 5898 5898 5897 5896 5896 5895 5894 5893 5892 5891 5889 5888 5887 5885 5884 5882 5881 5879 5878 5876 5875 5874 5873 5871 5870 5868 5867 5865 5863 5862 5860 5859
5906 5905 5904 5903 5902 5901 5901 5900 5899 5898 5897 5896 5895 5894 5893 5893 5892 5891 5890 5889 5888 5886 5885 5883 5882 5880 5879 5877 5876 5874 5873 5871 5870 5869 5867 5866 5864 5862 5860 5858 5857 5855 5853
5905 5903 5902 5901 5901 5900 5899 5898 5897 5896 5895 5894 5892 5891 5891 5890 5889 5888 5887 5886 5885 5883 5882 5880 5878 5877 5875 5873 5872 5870 5868 5867 5865 5864 5862 5860 5859 5857 5855 5853 5851 5849 5847
5904 5902 5900 5899 5898 5898 5897 5896 5894 5893 5892 5891 5890 5889 5888 5887 5886 5885 5884 5883 5882 5880 5878 5877 5875 5873 5871 5869 5867 5865 5864 5862 5861 5859 5857 5855 5853 5851 5849 5846 5845 5843 5841
5902 5900 5899 5897 5896 5895 5894 5893 5892 5891 5890 5889 5887 5886 5885 5884 5883 5882 5881 5880 5879 5877 5875 5873 5871 5869 5867 5865 5863 5861 5859 5857 5856 5854 5851 5849 5847 5845 5842 5840 5838 5836 5833
5900 5898 5897 5895 5894 5893 5892 5890 5889 5888 5887 5886 5885 5883 5882 5881 5880 5878 5877 5876 5874 5873 5871 5870 5867 5865 5863 5861 5859 5857 5854 5852 5850 5848 5846 5843 5841 5838 5836 5833 5831 5829 5827
5897 5896 5894 5893 5892 5891 5889 5888 5887 5885 5884 5883 5881 5880 5879 5877 5876 5874 5873 5872 5870 5869 5867 5865 5863 5861 5859 5857 5854 5852 5849 5847 5845 5842 5840 5837 5835 5832 5830 5827 5825 5822 5820
5895 5893 5892 5890 5889 5888 5887 5885 5884 5882 5880 5879 5877 5876 5874 5873 5872 5870 5869 5868 5866 5864 5863 5861 5858 5856 5854 5852 5849 5846 5844 5841 5839 5836 5834 5831 5828 5826 5823 5820 5818 5815 5812
5892 5891 5889 5888 5886 5885 5884 5882 5880 5878 5877 5875 5873 5872 5870 5869 5868 5866 5865 5863 5861 5859 5858 5856 5853 5851 5849 5846 5843 5841 5838 5835 5833 5830 5827 5825 5822 5819 5816 5813 5810 5807 5805
5890 5888 5887 5885 5884 5882 5881 5879 5877 5875 5873 5871 5870 5868 5866 5864 5863 5861 5859 5857 5856 5854 5852 5850 5848 5846 5843 5840 5838 5835 5832 5829 5827 5824 5821 5818 5815 5812 5809 5806 5803 5800 5797
5888 5886 5884 5883 5881 5879 5877 5876 5874 5872 5870 5868 5866 5864 5862 5860 5858 5856 5854 5852 5850 5849 5847 5845 5842 5840 5837 5834 5831 5828 5825 5823 5820 5817 5814 5811 5808 5805 5801 5798 5795 5792 5789
5886 5884 5882 5880 5878 5876 5874 5872 5870 5868 5866 5865 5862 5860 5858 5855 5853 5851 5849 5847 5846 5844 5842 5839 5837 5834 5831 5828 5825 5822 5819 5817 5814 5811 5808 5804 5801 5797 5794 5790 5787 5784 5780
5883 5881 5879 5877 5875 5873 5871 5869 5867 5865 5863 5860 5858 5856 5853 5851 5849 5847 5845 5843 5841 5838 5836 5834 5831 5828 5825 5822 5819 5816 5813 5810 5807 5804 5800 5797 5793 5790 5786 5782 5779 5775 5772
5880 5878 5876 5874 5872 5869 5867 5865 5863 5861 5858 5856 5854 5852 5849 5847 5844 5842 5840 5838 5836 5833 5831 5828 5825 5822 5819 5816 5813 5810 5806 5803 5800 5796 5793 5789 5785 5782 5778 5775 5771 5767 5764
5877 5875 5872 5870 5868 5865 5863 5861 5859 5856 5854 5852 5850 5847 5845 5843 5840 5838 5835 5833 5831 5828 5825 5821 5818 5815 5812 5809 5806 5803 5799 5796 5792 5789 5785 5782 5778 5774 5770 5767 5763 5759 5756
5873 5871 5869 5866 5863 5861 5858 5856 5854 5852 5850 5848 5845 5843 5840 5838 5835 5833 5830 5828 5825 5822 5819 5816 5812 5809 5806 5802 5799 5796 5792 5788 5785 5781 5777 5774 5770 5766 5762 5759 5755 5752 5748